Terminal Aerodrome Forecast
Issued by NWS Twin Cities, MN

Home | Current Version | Previous Version | Text Only | Print | Product List | Glossary Off
Versions: 1 2 3 4 5 6 7 8 9 10 11 12 13 14 15 16 17 18 19 20 21

000
FTUS43 KMPX 261700
TAFEAU
TAF
KEAU 261723Z 2618/2718 04005KT P6SM SCT020 OVC050
     FM261900 01006KT 2SM -SN BKN015 OVC025
     FM270100 32011KT P6SM OVC025
     FM270700 32009KT P6SM SCT025=

USA.gov is the U.S. government's official web portal to all federal, state and local government web resources and services.